Location: Newark
(25.6108°S, 54.5803°W)
Time: 21:56:28
(UTC+00:00)

Tiros 1 - Pass Details

Date: 28 October 2020
Orbit: 630 x 664 km, 48.4° (Epoch: 29 November)

Event Time Altitude Azimuth Distance (km) Brightness Sun altitude
Rises 17:46:21 0° 304° (NW) 2,962 11.1 54.0°
Reaches altitude 10° 17:48:43 10° 299° (WNW) 2,061 10.5 53.5°
Maximum altitude 17:53:22 53° 222° (SW) 810 8.8 52.5°
Drops below altitude 10° 17:58:07 10° 144° (SE) 2,094 9.6 51.4°
Sets 18:00:32 0° 139° (SE) 3,014 10.3 50.9°
